Time,TemperatureF,DewpointF,PressureIn,WindDirection,WindDirectionDegrees,WindSpeedMPH,WindSpeedGustMPH,Humidity,HourlyPrecipIn,Conditions,Clouds,dailyrainin,SoftwareType,DateUTC
2013-09-30 00:05:00,48.8,48.0,29.56,SSE,148,0.0,4.0,96,0.21,,,0.03,weatherlink.com 1.10,2013-09-30 07:05:00,
2013-09-30 00:20:00,48.2,46.0,29.58,ENE,58,4.0,7.0,92,0.22,,,0.07,weatherlink.com 1.10,2013-09-30 07:20:00,
2013-09-30 00:35:00,46.9,45.0,29.60,East,96,2.0,4.0,91,0.21,,,0.08,weatherlink.com 1.10,2013-09-30 07:35:00,
2013-09-30 00:50:00,45.7,43.0,29.62,ESE,118,0.0,6.0,91,0.17,,,0.10,weatherlink.com 1.10,2013-09-30 07:50:00,
2013-09-30 01:05:00,44.6,42.0,29.63,SE,134,3.0,8.0,89,0.07,,,0.11,weatherlink.com 1.10,2013-09-30 08:05:00,
2013-09-30 01:21:00,43.7,41.0,29.65,WSW,250,2.0,8.0,91,0.06,,,0.13,weatherlink.com 1.10,2013-09-30 08:21:00,
2013-09-30 01:36:00,43.2,41.0,29.66,SSE,158,0.0,5.0,93,0.05,,,0.13,weatherlink.com 1.10,2013-09-30 08:36:00,
2013-09-30 01:51:00,42.5,40.0,29.68,East,97,0.0,7.0,92,0.03,,,0.13,weatherlink.com 1.10,2013-09-30 08:51:00,
2013-09-30 02:06:00,41.9,39.0,29.69,SE,133,1.0,5.0,90,0.02,,,0.13,weatherlink.com 1.10,2013-09-30 09:06:00,
2013-09-30 02:21:00,40.3,37.0,29.72,SW,217,4.0,12.0,89,0.00,,,0.13,weatherlink.com 1.10,2013-09-30 09:21:00,
2013-09-30 02:36:00,39.4,37.0,29.72,NNE,25,4.0,9.0,89,0.00,,,0.13,weatherlink.com 1.10,2013-09-30 09:36:00,
2013-09-30 02:51:00,39.0,36.0,29.71,East,97,3.0,12.0,88,0.00,,,0.13,weatherlink.com 1.10,2013-09-30 09:51:00,
2013-09-30 03:06:00,38.4,36.0,29.73,ESE,110,1.0,5.0,92,0.00,,,0.13,weatherlink.com 1.10,2013-09-30 10:06:00,
2013-09-30 03:21:00,38.1,36.0,29.71,SW,215,3.0,6.0,93,0.00,,,0.13,weatherlink.com 1.10,2013-09-30 10:21:00,
2013-09-30 03:36:00,38.1,36.0,29.72,SSE,161,0.0,5.0,93,0.00,,,0.13,weatherlink.com 1.10,2013-09-30 10:36:00,
2013-09-30 03:51:00,37.7,36.0,29.73,SE,124,1.0,3.0,94,0.00,,,0.13,weatherlink.com 1.10,2013-09-30 10:51:00,
2013-09-30 04:06:00,37.6,36.0,29.73,NE,40,3.0,6.0,94,0.00,,,0.13,weatherlink.com 1.10,2013-09-30 11:06:00,
2013-09-30 04:21:00,37.5,36.0,29.74,ESE,108,0.0,3.0,94,0.00,,,0.13,weatherlink.com 1.10,2013-09-30 11:21:00,
2013-09-30 04:36:00,37.1,36.0,29.74,SE,142,1.0,4.0,94,0.00,,,0.13,weatherlink.com 1.10,2013-09-30 11:36:00,
2013-09-30 04:51:00,37.3,35.0,29.75,ENE,64,2.0,6.0,91,0.00,,,0.13,weatherlink.com 1.10,2013-09-30 11:51:00,
2013-09-30 05:06:00,37.5,34.0,29.75,SE,142,4.0,8.0,88,0.00,,,0.13,weatherlink.com 1.10,2013-09-30 12:06:00,
2013-09-30 05:21:00,37.3,34.0,29.77,SE,141,1.0,8.0,86,0.00,,,0.13,weatherlink.com 1.10,2013-09-30 12:21:00,
2013-09-30 05:36:00,36.9,34.0,29.77,South,183,1.0,6.0,88,0.00,,,0.13,weatherlink.com 1.10,2013-09-30 12:36:00,
2013-09-30 05:51:00,36.4,33.0,29.78,NW,304,2.0,5.0,88,0.00,,,0.13,weatherlink.com 1.10,2013-09-30 12:51:00,
2013-09-30 06:06:00,36.0,33.0,29.79,SSE,147,0.0,4.0,89,0.00,,,0.13,weatherlink.com 1.10,2013-09-30 13:06:00,
2013-09-30 06:21:00,35.7,33.0,29.78,SSW,212,5.0,7.0,88,0.00,,,0.13,weatherlink.com 1.10,2013-09-30 13:21:00,
2013-09-30 06:36:00,36.0,32.0,29.78,NNW,330,6.0,8.0,86,0.00,,,0.13,weatherlink.com 1.10,2013-09-30 13:36:00,
2013-09-30 06:51:00,36.0,33.0,29.78,North,351,4.0,8.0,87,0.00,,,0.13,weatherlink.com 1.10,2013-09-30 13:51:00,
2013-09-30 07:07:00,35.6,32.0,29.78,NNW,338,4.0,6.0,88,0.00,,,0.13,weatherlink.com 1.10,2013-09-30 14:07:00,
2013-09-30 07:22:00,36.0,33.0,29.79,NW,323,3.0,7.0,87,0.00,,,0.13,weatherlink.com 1.10,2013-09-30 14:22:00,
2013-09-30 07:37:00,36.2,32.0,29.79,SSE,167,3.0,7.0,86,0.00,,,0.13,weatherlink.com 1.10,2013-09-30 14:37:00,
2013-09-30 07:52:00,36.8,33.0,29.80,NNW,338,5.0,8.0,86,0.00,,,0.13,weatherlink.com 1.10,2013-09-30 14:52:00,
2013-09-30 08:07:00,37.6,34.0,29.81,NNW,338,3.0,11.0,86,0.00,,,0.13,weatherlink.com 1.10,2013-09-30 15:07:00,
2013-09-30 08:22:00,38.2,34.0,29.81,ENE,75,5.0,9.0,86,0.00,,,0.13,weatherlink.com 1.10,2013-09-30 15:22:00,
2013-09-30 08:37:00,39.6,35.0,29.81,SSW,210,6.0,10.0,84,0.00,,,0.13,weatherlink.com 1.10,2013-09-30 15:37:00,
2013-09-30 08:52:00,41.0,35.0,29.81,NNE,20,3.0,13.0,79,0.00,,,0.13,weatherlink.com 1.10,2013-09-30 15:52:00,
2013-09-30 09:07:00,41.9,35.0,29.81,NW,321,5.0,15.0,76,0.00,,,0.13,weatherlink.com 1.10,2013-09-30 16:07:00,
2013-09-30 09:22:00,42.8,35.0,29.81,NW,314,2.0,11.0,74,0.00,,,0.13,weatherlink.com 1.10,2013-09-30 16:22:00,
2013-09-30 09:37:00,43.7,34.0,29.82,NNW,338,3.0,13.0,69,0.00,,,0.13,weatherlink.com 1.10,2013-09-30 16:37:00,
2013-09-30 09:52:00,44.3,34.0,29.82,ENE,64,6.0,13.0,68,0.00,,,0.13,weatherlink.com 1.10,2013-09-30 16:52:00,
2013-09-30 10:07:00,44.8,35.0,29.84,NNW,341,4.0,13.0,68,0.00,,,0.13,weatherlink.com 1.10,2013-09-30 17:07:00,
2013-09-30 10:22:00,44.4,35.0,29.84,NNW,347,9.0,13.0,69,0.00,,,0.13,weatherlink.com 1.10,2013-09-30 17:22:00,
2013-09-30 10:37:00,44.8,35.0,29.85,NNE,13,3.0,10.0,68,0.00,,,0.13,weatherlink.com 1.10,2013-09-30 17:37:00,
2013-09-30 10:52:00,45.5,34.0,29.85,NNW,338,6.0,14.0,65,0.00,,,0.13,weatherlink.com 1.10,2013-09-30 17:52:00,
2013-09-30 11:07:00,46.2,35.0,29.86,NE,56,5.0,12.0,65,0.00,,,0.13,weatherlink.com 1.10,2013-09-30 18:07:00,
2013-09-30 11:22:00,47.5,36.0,29.87,NW,321,8.0,11.0,64,0.00,,,0.13,weatherlink.com 1.10,2013-09-30 18:22:00,
2013-09-30 11:37:00,47.9,36.0,29.88,ENE,69,3.0,18.0,64,0.00,,,0.13,weatherlink.com 1.10,2013-09-30 18:37:00,
2013-09-30 11:52:00,47.5,36.0,29.88,West,268,6.0,17.0,64,0.00,,,0.13,weatherlink.com 1.10,2013-09-30 18:52:00,
2013-09-30 12:07:00,47.2,37.0,29.89,NNW,331,7.0,14.0,67,0.00,,,0.13,weatherlink.com 1.10,2013-09-30 19:07:00,
2013-09-30 12:22:00,46.5,36.0,29.89,NE,41,3.0,16.0,68,0.00,,,0.13,weatherlink.com 1.10,2013-09-30 19:22:00,
2013-09-30 12:37:00,47.2,36.0,29.89,ESE,109,1.0,9.0,66,0.00,,,0.13,weatherlink.com 1.10,2013-09-30 19:37:00,
2013-09-30 12:52:00,48.3,38.0,29.89,NNW,335,5.0,10.0,67,0.00,,,0.13,weatherlink.com 1.10,2013-09-30 19:52:00,
2013-09-30 13:07:00,48.6,37.0,29.89,NNW,343,4.0,12.0,64,0.00,,,0.13,weatherlink.com 1.10,2013-09-30 20:07:00,
2013-09-30 13:22:00,48.9,37.0,29.89,NW,316,4.0,13.0,64,0.00,,,0.13,weatherlink.com 1.10,2013-09-30 20:22:00,
2013-09-30 13:37:00,48.4,38.0,29.90,NW,316,6.0,18.0,68,0.00,,,0.13,weatherlink.com 1.10,2013-09-30 20:37:00,
2013-09-30 13:52:00,48.3,38.0,29.90,NNW,336,4.0,10.0,68,0.00,,,0.13,weatherlink.com 1.10,2013-09-30 20:52:00,
2013-09-30 14:07:00,48.3,39.0,29.91,SSW,203,2.0,9.0,70,0.00,,,0.13,weatherlink.com 1.10,2013-09-30 21:07:00,
2013-09-30 14:22:00,48.5,38.0,29.91,NW,312,4.0,12.0,68,0.00,,,0.13,weatherlink.com 1.10,2013-09-30 21:22:00,
2013-09-30 14:37:00,49.0,39.0,29.92,NE,35,6.0,10.0,69,0.00,,,0.13,weatherlink.com 1.10,2013-09-30 21:37:00,
2013-09-30 14:52:00,49.1,38.0,29.92,NW,323,5.0,12.0,67,0.00,,,0.13,weatherlink.com 1.10,2013-09-30 21:52:00,
2013-09-30 15:07:00,49.6,39.0,29.91,South,191,3.0,12.0,66,0.00,,,0.13,weatherlink.com 1.10,2013-09-30 22:07:00,
2013-09-30 15:22:00,49.1,39.0,29.92,NNW,342,2.0,6.0,68,0.00,,,0.13,weatherlink.com 1.10,2013-09-30 22:22:00,
2013-09-30 15:37:00,49.0,38.0,29.92,NW,321,3.0,12.0,66,0.00,,,0.13,weatherlink.com 1.10,2013-09-30 22:37:00,
2013-09-30 15:52:00,49.1,38.0,29.92,North,354,3.0,7.0,67,0.00,,,0.13,weatherlink.com 1.10,2013-09-30 22:52:00,
2013-09-30 16:07:00,49.7,39.0,29.92,NNE,27,7.0,14.0,66,0.00,,,0.13,weatherlink.com 1.10,2013-09-30 23:07:00,
2013-09-30 16:22:00,48.9,39.0,29.92,ENE,75,6.0,12.0,70,0.00,,,0.13,weatherlink.com 1.10,2013-09-30 23:22:00,
2013-09-30 16:37:00,48.5,39.0,29.92,NE,52,2.0,11.0,71,0.00,,,0.13,weatherlink.com 1.10,2013-09-30 23:37:00,
2013-09-30 16:52:00,48.3,39.0,29.92,ENE,68,4.0,13.0,70,0.00,,,0.13,weatherlink.com 1.10,2013-09-30 23:52:00,
2013-09-30 17:07:00,47.6,39.0,29.93,SE,131,1.0,9.0,71,0.00,,,0.13,weatherlink.com 1.10,2013-10-01 00:07:00,
2013-09-30 17:22:00,47.0,38.0,29.92,WNW,300,4.0,13.0,72,0.00,,,0.13,weatherlink.com 1.10,2013-10-01 00:22:00,
2013-09-30 17:37:00,45.9,39.0,29.93,SSE,152,1.0,6.0,76,0.00,,,0.13,weatherlink.com 1.10,2013-10-01 00:37:00,
2013-09-30 17:53:00,45.4,39.0,29.93,East,91,2.0,6.0,78,0.00,,,0.13,weatherlink.com 1.10,2013-10-01 00:53:00,
2013-09-30 18:07:00,44.8,39.0,29.93,ESE,103,3.0,7.0,79,0.00,,,0.13,weatherlink.com 1.10,2013-10-01 01:07:00,
2013-09-30 18:22:00,44.5,38.0,29.93,SE,145,2.0,5.0,78,0.00,,,0.13,weatherlink.com 1.10,2013-10-01 01:22:00,
2013-09-30 18:38:00,44.3,37.0,29.93,NNE,19,2.0,6.0,76,0.00,,,0.13,weatherlink.com 1.10,2013-10-01 01:38:00,
2013-09-30 18:52:00,44.0,37.0,29.93,SSW,198,1.0,6.0,77,0.00,,,0.13,weatherlink.com 1.10,2013-10-01 01:52:00,
2013-09-30 19:08:00,43.8,37.0,29.93,South,170,0.0,4.0,78,0.00,,,0.13,weatherlink.com 1.10,2013-10-01 02:08:00,
2013-09-30 19:23:00,43.7,37.0,29.93,SSW,208,5.0,11.0,78,0.00,,,0.13,weatherlink.com 1.10,2013-10-01 02:23:00,
2013-09-30 19:38:00,43.7,37.0,29.94,East,86,2.0,4.0,78,0.00,,,0.13,weatherlink.com 1.10,2013-10-01 02:38:00,
2013-09-30 19:53:00,43.7,37.0,29.95,ESE,113,0.0,4.0,78,0.00,,,0.13,weatherlink.com 1.10,2013-10-01 02:53:00,
2013-09-30 20:08:00,43.3,38.0,29.94,ENE,74,2.0,10.0,80,0.00,,,0.13,weatherlink.com 1.10,2013-10-01 03:08:00,
2013-09-30 20:23:00,42.7,38.0,29.95,SW,224,6.0,6.0,82,0.00,,,0.13,weatherlink.com 1.10,2013-10-01 03:23:00,
2013-09-30 20:38:00,42.6,38.0,29.95,South,176,0.0,4.0,82,0.00,,,0.13,weatherlink.com 1.10,2013-10-01 03:38:00,
2013-09-30 20:53:00,42.4,37.0,29.95,SE,136,0.0,6.0,82,0.00,,,0.13,weatherlink.com 1.10,2013-10-01 03:53:00,
2013-09-30 21:08:00,42.2,38.0,29.95,WSW,239,2.0,4.0,84,0.00,,,0.13,weatherlink.com 1.10,2013-10-01 04:08:00,
2013-09-30 21:23:00,41.9,38.0,29.95,SSE,155,1.0,6.0,85,0.00,,,0.13,weatherlink.com 1.10,2013-10-01 04:23:00,
2013-09-30 21:38:00,41.9,37.0,29.95,SSE,158,0.0,5.0,84,0.00,,,0.13,weatherlink.com 1.10,2013-10-01 04:38:00,
2013-09-30 21:53:00,41.8,37.0,29.96,ENE,69,3.0,9.0,83,0.00,,,0.13,weatherlink.com 1.10,2013-10-01 04:53:00,
2013-09-30 22:08:00,41.5,37.0,29.96,SSE,153,0.0,3.0,85,0.00,,,0.13,weatherlink.com 1.10,2013-10-01 05:08:00,
2013-09-30 22:23:00,40.9,37.0,29.96,ESE,122,0.0,3.0,86,0.00,,,0.13,weatherlink.com 1.10,2013-10-01 05:23:00,
2013-09-30 22:38:00,40.5,36.0,29.96,SE,138,0.0,3.0,85,0.00,,,0.13,weatherlink.com 1.10,2013-10-01 05:38:00,
2013-09-30 22:53:00,40.1,36.0,29.96,South,177,0.0,2.0,85,0.00,,,0.13,weatherlink.com 1.10,2013-10-01 05:53:00,
2013-09-30 23:08:00,39.9,36.0,29.97,SSW,206,2.0,2.0,86,0.00,,,0.13,weatherlink.com 1.10,2013-10-01 06:08:00,
2013-09-30 23:23:00,39.7,36.0,29.96,South,183,0.0,2.0,86,0.00,,,0.13,weatherlink.com 1.10,2013-10-01 06:23:00,
2013-09-30 23:38:00,39.8,36.0,29.96,SSE,157,0.0,3.0,87,0.00,,,0.13,weatherlink.com 1.10,2013-10-01 06:38:00,
2013-09-30 23:53:00,39.8,36.0,29.96,South,173,0.0,4.0,87,0.00,,,0.13,weatherlink.com 1.10,2013-10-01 06:53:00,